Regional Weather Roundup
Issued by NWS

Home | Current Version | Previous Version | Graphics & Text | Print | Product List | Glossary On
Versions: 1 2 3 4 5 6 7 8 9 10 11 12 13 14 15 16 17 18 19 20 21 22 23 24 25 26 27 28 29 30 31 32 33 34 35 36 37 38 39 40 41 42 43 44 45 46 47 48 49 50
000
ASUS43 KLMK 190810
RWRKY
KENTUCKY REGIONAL WEATHER ROUNDUP
NATIONAL WEATHER SERVICE LOUISVILLE KY
400 AM EDT FRI SEP 19 2014

NOTE "FAIR" INDICATES FEW OR NO CLOUDS BELOW 12,000 FEET
WITH NO SIGNIFICANT WEATHER AND/OR OBSTRUCTIONS TO VISIBILITY.

KYZ001>023-026-027-061>063-070>075-190900-
WESTERN AND SOUTH CENTRAL KENTUCKY

CITY           SKY/WX    TMP DP  RH WIND       PRES   REMARKS
PADUCAH        CLEAR     60  54  80 CALM      30.04F
HENDERSON      CLEAR     54  48  82 CALM      30.08S
OWENSBORO      CLEAR     60  53  77 E5        30.08S
HOPKINSVILLE   PTCLDY    56  56 100 NE7       30.04F
BOWLING GREEN  CLEAR     56  53  90 CALM      30.07S
GLASGOW        CLEAR     55  54  98 CALM      30.07F
$$

KYZ024-025-028>034-038-045-046-053-190900-
NORTH CENTRAL KENTUCKY

CITY           SKY/WX    TMP DP  RH WIND       PRES   REMARKS
LOUISVILLE/SDF CLEAR     61  49  64 NE8       30.10S
LOUISVILLE/LOU CLEAR     59  49  69 NE6       30.11S
FORT KNOX      CLEAR     56  51  82 NE6       30.09S
$$

KYZ035>037-039>044-047>052-055>060-089>105-190900-
NORTHEAST KENTUCKY

CITY           SKY/WX    TMP DP  RH WIND       PRES   REMARKS
LEXINGTON      CLEAR     57  48  72 NE9       30.11F
COVINGTON      CLEAR     57  47  69 NE8       30.15S
FRANKFORT      CLEAR     56  49  77 NE5       30.11S
$$

KYZ054-064>069-076>088-106>120-190900-
SOUTHEAST KENTUCKY

CITY           SKY/WX    TMP DP  RH WIND       PRES   REMARKS
JACKSON        CLEAR     56  49  77 CALM      30.11S
LONDON         CLEAR     57  52  83 N5        30.10S
SOMERSET       NOT AVBL
MIDDLESBORO    FOG       54  54 100 CALM      30.10S VSB 1/4
MONTICELLO     SUNNY     54  53  96 CALM      30.09F FOG
$$




USA.gov is the U.S. government's official web portal to all federal, state and local government web resources and services.